Change the Weather History Date:

Monday, July 8, 2013

  Actual Average Record
Temperature  
Mean Temperature 86 °F 83 °F  
Max Temperature 96 °F 95 °F 105 °F (2011)
Min Temperature 76 °F 71 °F 61 °F (1952)
Degree Days  
Heating Degree Days 0 0  
Month to date heating degree days 0 0  
Since 1 June heating degree days 0 0  
Since 1 July heating degree days 0 0  
Cooling Degree Days 21 18  
Month to date cooling degree days 129 140  
Year to date cooling degree days 1286 1064  
Since 1 June cooling degree days 690 604  
Growing Degree Days 36 (Base 50)    
Moisture  
Dew Point 64 °F    
Average Humidity 51    
Maximum Humidity 71    
Minimum Humidity 30    
Precipitation  
Precipitation 0.00 in 0.05 in 0.80 in (1968)
Month to date precipitation 0.01 0.37  
Year to date precipitation 7.79 10.98  
Sea Level Pressure  
Sea Level Pressure 29.97 in    
Wind  
Wind Speed 10 mph (South)    
Max Wind Speed 18 mph    
Max Gust Speed 25 mph    
Visibility 10 miles    
Events      
T = Trace of Precipitation, MM = Missing Value Source: NWS Daily Summary

Daily Weather History Graph

Daily Weather History Graph

Search for Another Location

Airport or City:

Trip Planner

Search our weather history database for the weather conditions in past years. The results will help you decide how hot, cold, wet, or windy it might be!

Date:

Astronomy

Jul. 08, 2013 Rise Set
Actual Time 6:44 AM CDT 8:49 PM CDT
Civil Twilight 6:16 AM CDT 9:17 PM CDT
Nautical Twilight 5:43 AM CDT 9:50 PM CDT
Astronomical Twilight 5:07 AM CDT 10:26 PM CDT
Moon 7:09 AM CDT (7/8) 9:00 PM CDT (7/8)
Length of Visible Light 15h 00m
Length of Day
14h 05m
New Moon, 0% of the Moon is Illuminated
Jul 8
New Moon
Jul 15
First Quarter
Jul 22
Full
Jul 29
Last Quarter
Aug 6
New

Hourly Weather History & Observations

Time (CDT) Temp. Heat Index Dew Point Humidity Pressure Visibility Wind Dir Wind Speed Gust Speed Precip Events Conditions
12:51 AM 82.9 °F 82.8 °F 59.0 °F 44% 29.91 in 10.0 mi SSE 6.9 mph - N/A   Clear
1:51 AM 82.0 °F 83.4 °F 64.0 °F 54% 29.91 in 10.0 mi South 9.2 mph - N/A   Clear
2:51 AM 81.0 °F 83.0 °F 66.0 °F 60% 29.92 in 10.0 mi SSE 8.1 mph - N/A   Clear
3:51 AM 80.1 °F 82.1 °F 66.0 °F 62% 29.93 in 10.0 mi South 8.1 mph - N/A   Clear
4:51 AM 79.0 °F - 66.9 °F 66% 29.94 in 10.0 mi South 6.9 mph - N/A   Clear
5:51 AM 78.1 °F - 66.9 °F 68% 29.96 in 10.0 mi SSE 6.9 mph - N/A   Clear
6:51 AM 77.0 °F - 66.9 °F 71% 29.99 in 10.0 mi Calm Calm - N/A   Clear
7:51 AM 78.1 °F - 68.0 °F 71% 30.01 in 10.0 mi Calm Calm - N/A   Clear
8:51 AM 80.1 °F 82.9 °F 69.1 °F 69% 30.02 in 10.0 mi South 10.4 mph - N/A   Clear
9:51 AM 82.9 °F 85.8 °F 68.0 °F 60% 30.03 in 10.0 mi South 9.2 mph - N/A   Clear
10:51 AM 86.0 °F 88.8 °F 66.9 °F 53% 30.03 in 10.0 mi South 11.5 mph - N/A   Clear
11:51 AM 88.0 °F 90.3 °F 66.0 °F 48% 30.03 in 10.0 mi South 13.8 mph - N/A   Clear
12:51 PM 91.0 °F 93.0 °F 64.9 °F 42% 30.02 in 10.0 mi South 15.0 mph - N/A   Scattered Clouds
1:51 PM 91.9 °F 92.9 °F 63.0 °F 38% 30.00 in 10.0 mi South 8.1 mph 17.3 mph N/A   Scattered Clouds
2:51 PM 93.9 °F 95.2 °F 63.0 °F 36% 29.98 in 10.0 mi South 11.5 mph 21.9 mph N/A   Scattered Clouds
3:51 PM 95.0 °F 95.6 °F 62.1 °F 33% 29.96 in 10.0 mi South 12.7 mph 18.4 mph N/A   Mostly Cloudy
4:51 PM 96.1 °F 96.4 °F 61.0 °F 31% 29.95 in 10.0 mi SW 9.2 mph - N/A   Partly Cloudy
5:51 PM 95.0 °F 95.2 °F 61.0 °F 32% 29.93 in 10.0 mi SSE 8.1 mph - N/A   Partly Cloudy
6:51 PM 93.0 °F 93.0 °F 61.0 °F 34% 29.94 in 10.0 mi South 13.8 mph - N/A   Overcast
7:51 PM 91.0 °F 90.9 °F 61.0 °F 36% 29.94 in 10.0 mi South 15.0 mph 20.7 mph N/A   Overcast
8:51 PM 89.1 °F 90.0 °F 63.0 °F 42% 29.96 in 10.0 mi SSE 16.1 mph 23.0 mph N/A   Overcast
9:51 PM 87.1 °F 86.7 °F 60.1 °F 40% 29.98 in 10.0 mi South 12.7 mph 18.4 mph N/A   Clear
10:51 PM 84.0 °F 84.0 °F 60.1 °F 44% 30.01 in 10.0 mi South 8.1 mph - N/A   Clear
11:51 PM 82.0 °F 83.0 °F 62.1 °F 51% 30.03 in 10.0 mi SSE 8.1 mph - N/A   Clear